NJE830A LSZA-LIRZ

Flight info

Callsign NJE830A
Flight time 0h 43m
Altitude 19000
Route SRN L153 OSBUL L995 AMTEL Q85 LAKOX
Aircraft C700/M-SBDGHM1RWXY/LB2

Departure

Time 2026-04-29 16:50
Airport Lugano Airport (LSZA)

Arrival

Time 2026-04-29 17:33
Airport Perugia San Francesco d'Assisi – Umbria International Airport (LIRZ)
Time Latitude Longitude Altitude Speed Heading
2026-04-29 16:34 46.00245 8.90808 921 ft 0 kts 19°
2026-04-29 16:46 46.00246 8.90808 918 ft 0 kts 20°
2026-04-29 16:46 46.00247 8.90809 918 ft 1 kts 20°
2026-04-29 16:46 46.00248 8.90809 924 ft 0 kts 20°
2026-04-29 16:47 46.00254 8.90815 922 ft 1 kts 38°
2026-04-29 16:47 46.00258 8.90835 921 ft 4 kts 88°
2026-04-29 16:47 46.00218 8.90852 918 ft 11 kts 197°
2026-04-29 16:48 46.00164 8.90826 918 ft 5 kts 198°
2026-04-29 16:48 46.00127 8.90885 921 ft 13 kts 130°
2026-04-29 16:48 46.00039 8.90878 921 ft 17 kts 203°
2026-04-29 16:48 45.99959 8.90825 923 ft 6 kts 177°
2026-04-29 16:49 45.99883 8.90794 923 ft 0 kts 19°
2026-04-29 16:49 45.99884 8.90795 923 ft 0 kts 19°
2026-04-29 16:49 46.00092 8.90897 918 ft 78 kts 19°
2026-04-29 16:49 46.00872 8.91284 1132 ft 143 kts 19°
2026-04-29 16:50 46.01644 8.91678 1976 ft 140 kts 20°
2026-04-29 16:50 46.02535 8.92158 3249 ft 134 kts 20°
2026-04-29 16:50 46.03449 8.92639 4125 ft 159 kts 20°
2026-04-29 16:50 46.04397 8.93565 5199 ft 170 kts 59°
2026-04-29 16:51 46.04410 8.95273 6214 ft 190 kts 123°
2026-04-29 16:51 46.03269 8.96043 7414 ft 185 kts 189°
2026-04-29 16:51 46.02094 8.95558 8765 ft 191 kts 201°
2026-04-29 16:51 46.00690 8.94731 9332 ft 226 kts 205°
2026-04-29 16:52 45.99396 8.93922 11226 ft 194 kts 205°
2026-04-29 16:52 45.98041 8.93131 11963 ft 225 kts 201°
2026-04-29 16:52 45.96415 8.92575 12671 ft 256 kts 188°
2026-04-29 16:52 45.94535 8.92624 13437 ft 285 kts 172°
2026-04-29 16:53 45.92508 8.93303 14131 ft 313 kts 166°
2026-04-29 16:53 45.90318 8.94189 14832 ft 340 kts 166°
2026-04-29 16:53 45.87981 8.94966 15961 ft 347 kts 170°
2026-04-29 16:53 45.85582 8.95633 17164 ft 355 kts 171°
2026-04-29 16:54 45.83132 8.96373 18333 ft 364 kts 169°
2026-04-29 16:54 45.80639 8.97183 19295 ft 370 kts 169°
2026-04-29 16:54 45.78103 8.97985 20244 ft 376 kts 170°
2026-04-29 16:54 45.75525 8.98772 21117 ft 382 kts 170°
2026-04-29 16:55 45.72910 8.99575 21983 ft 387 kts 170°
2026-04-29 16:55 45.70257 9.00404 22851 ft 393 kts 170°
2026-04-29 16:55 45.67526 9.01374 23008 ft 418 kts 163°
2026-04-29 16:55 45.64902 9.03179 23022 ft 418 kts 149°
2026-04-29 16:56 45.62652 9.05718 23002 ft 406 kts 136°
2026-04-29 16:56 45.60848 9.08935 22990 ft 430 kts 122°
2026-04-29 16:56 45.59484 9.12875 23035 ft 454 kts 110°
2026-04-29 16:56 45.58651 9.17274 23050 ft 463 kts 101°
2026-04-29 16:57 45.57472 9.21565 23037 ft 469 kts 121°
2026-04-29 16:57 45.55347 9.25072 23043 ft 469 kts 138°
2026-04-29 16:57 45.52816 9.28003 23052 ft 469 kts 144°
2026-04-29 16:57 45.50179 9.30754 23057 ft 470 kts 144°
2026-04-29 16:58 45.47578 9.33566 23057 ft 470 kts 142°
2026-04-29 16:58 45.45168 9.36717 23056 ft 470 kts 135°
2026-04-29 16:58 45.42919 9.40106 23100 ft 471 kts 133°
2026-04-29 16:58 45.40691 9.43518 23098 ft 470 kts 135°
2026-04-29 16:59 45.38327 9.46726 23095 ft 470 kts 139°
2026-04-29 16:59 45.35938 9.49793 23083 ft 468 kts 138°
2026-04-29 16:59 45.33601 9.53021 23078 ft 469 kts 135°
2026-04-29 16:59 45.31275 9.56358 23073 ft 469 kts 135°
2026-04-29 17:00 45.28962 9.59531 23062 ft 468 kts 137°
2026-04-29 17:00 45.26587 9.62699 23057 ft 469 kts 137°
2026-04-29 17:00 45.24238 9.65913 23050 ft 469 kts 136°
2026-04-29 17:00 45.21907 9.69152 23047 ft 472 kts 136°
2026-04-29 17:01 45.19546 9.72383 23037 ft 471 kts 136°
2026-04-29 17:01 45.17298 9.75770 23037 ft 472 kts 133°
2026-04-29 17:01 45.15089 9.79210 23025 ft 471 kts 133°
2026-04-29 17:01 45.12881 9.82612 23025 ft 469 kts 133°
2026-04-29 17:02 45.10661 9.85994 23022 ft 469 kts 133°
2026-04-29 17:02 45.08447 9.89392 23031 ft 469 kts 133°
2026-04-29 17:02 45.06242 9.92785 23031 ft 468 kts 133°
2026-04-29 17:02 45.04032 9.96167 23031 ft 468 kts 133°
2026-04-29 17:03 45.01819 9.99546 23065 ft 469 kts 133°
2026-04-29 17:03 44.99593 10.02946 23046 ft 472 kts 133°
2026-04-29 17:03 44.97366 10.06345 23059 ft 472 kts 133°
2026-04-29 17:03 44.95135 10.09741 23058 ft 472 kts 133°
2026-04-29 17:04 44.92900 10.13144 23054 ft 472 kts 133°
2026-04-29 17:04 44.90676 10.16524 23049 ft 470 kts 133°
2026-04-29 17:04 44.88447 10.19904 23044 ft 471 kts 133°
2026-04-29 17:04 44.86220 10.23284 23044 ft 470 kts 133°
2026-04-29 17:05 44.83996 10.26649 23043 ft 469 kts 133°
2026-04-29 17:05 44.81615 10.29773 23040 ft 468 kts 143°
2026-04-29 17:05 44.78922 10.32349 23111 ft 468 kts 149°
2026-04-29 17:05 44.76183 10.34833 23112 ft 468 kts 148°
2026-04-29 17:06 44.73454 10.37323 23134 ft 467 kts 148°
2026-04-29 17:06 44.70720 10.39808 23137 ft 467 kts 148°
2026-04-29 17:06 44.67992 10.42288 23136 ft 467 kts 148°
2026-04-29 17:06 44.65260 10.44768 23143 ft 468 kts 148°
2026-04-29 17:07 44.62524 10.47250 23163 ft 468 kts 148°
2026-04-29 17:07 44.60711 10.48895 23163 ft 468 kts 148°
2026-04-29 17:07 44.57048 10.52205 23167 ft 468 kts 148°
2026-04-29 17:07 44.54307 10.54677 23169 ft 468 kts 148°
2026-04-29 17:08 44.51574 10.57145 23170 ft 468 kts 148°
2026-04-29 17:08 44.48872 10.59577 23187 ft 468 kts 149°
2026-04-29 17:08 44.46088 10.62053 23188 ft 468 kts 149°
2026-04-29 17:08 44.43375 10.64455 23186 ft 468 kts 149°
2026-04-29 17:09 44.40627 10.66899 23187 ft 468 kts 149°
2026-04-29 17:09 44.37877 10.69346 23189 ft 468 kts 149°
2026-04-29 17:09 44.35125 10.71786 23187 ft 468 kts 149°
2026-04-29 17:09 44.32375 10.74219 23197 ft 468 kts 149°
2026-04-29 17:10 44.29623 10.76654 23195 ft 468 kts 149°
2026-04-29 17:10 44.26869 10.79090 23194 ft 468 kts 149°
2026-04-29 17:10 44.24117 10.81521 23194 ft 468 kts 149°
2026-04-29 17:10 44.21365 10.83949 23196 ft 468 kts 149°
2026-04-29 17:11 44.18612 10.86377 23200 ft 468 kts 149°
2026-04-29 17:11 44.15858 10.88801 23164 ft 468 kts 149°
2026-04-29 17:11 44.13101 10.91225 23166 ft 468 kts 149°
2026-04-29 17:11 44.10350 10.93646 23161 ft 468 kts 149°
2026-04-29 17:12 44.07598 10.96063 23111 ft 468 kts 149°
2026-04-29 17:12 44.04844 10.98473 23094 ft 468 kts 149°
2026-04-29 17:12 44.02075 11.00848 23073 ft 467 kts 152°
2026-04-29 17:12 44.00192 11.02287 23038 ft 467 kts 153°
2026-04-29 17:13 43.96366 11.05151 23023 ft 467 kts 153°
2026-04-29 17:13 43.93514 11.07330 23013 ft 468 kts 153°
2026-04-29 17:13 43.90665 11.09515 22998 ft 469 kts 153°
2026-04-29 17:13 43.87810 11.11677 22981 ft 468 kts 153°
2026-04-29 17:14 43.84950 11.13832 22988 ft 467 kts 153°
2026-04-29 17:14 43.82097 11.15994 22988 ft 467 kts 153°
2026-04-29 17:14 43.79245 11.18155 22988 ft 467 kts 153°
2026-04-29 17:14 43.76395 11.20305 22987 ft 467 kts 153°
2026-04-29 17:15 43.73544 11.22456 22987 ft 467 kts 153°
2026-04-29 17:15 43.70695 11.24602 22993 ft 466 kts 153°
2026-04-29 17:15 43.67848 11.26746 23045 ft 466 kts 153°
2026-04-29 17:15 43.65003 11.28885 23041 ft 460 kts 153°
2026-04-29 17:16 43.62287 11.30931 23042 ft 428 kts 153°
2026-04-29 17:16 43.59774 11.32819 23031 ft 395 kts 153°
2026-04-29 17:16 43.57466 11.34547 23036 ft 373 kts 154°
2026-04-29 17:16 43.55214 11.36229 23003 ft 371 kts 154°
2026-04-29 17:17 43.52806 11.38013 22541 ft 415 kts 154°
2026-04-29 17:17 43.50226 11.39922 21960 ft 424 kts 153°
2026-04-29 17:17 43.47615 11.41870 21385 ft 428 kts 153°
2026-04-29 17:17 43.45003 11.43819 20813 ft 426 kts 153°
2026-04-29 17:18 43.42420 11.45750 20272 ft 420 kts 153°
2026-04-29 17:18 43.39858 11.47659 19720 ft 417 kts 153°
2026-04-29 17:18 43.37314 11.49544 19174 ft 413 kts 153°
2026-04-29 17:18 43.34794 11.51410 18635 ft 410 kts 153°
2026-04-29 17:19 43.32299 11.53263 18069 ft 406 kts 153°
2026-04-29 17:19 43.29832 11.55093 17530 ft 401 kts 153°
2026-04-29 17:19 43.28181 11.56318 17177 ft 398 kts 153°
2026-04-29 17:19 43.25905 11.58457 16650 ft 397 kts 141°
2026-04-29 17:20 43.23966 11.61135 16131 ft 395 kts 131°
2026-04-29 17:20 43.22442 11.64195 15624 ft 393 kts 120°
2026-04-29 17:20 43.21339 11.67602 15103 ft 391 kts 109°
2026-04-29 17:20 43.20700 11.71210 14592 ft 389 kts 100°
2026-04-29 17:21 43.20251 11.74844 14091 ft 385 kts 100°
2026-04-29 17:21 43.19783 11.78417 13556 ft 373 kts 101°
2026-04-29 17:21 43.19340 11.81820 13074 ft 353 kts 100°
2026-04-29 17:21 43.18920 11.85050 12624 ft 336 kts 101°
2026-04-29 17:22 43.18510 11.88135 12192 ft 323 kts 101°
2026-04-29 17:22 43.18127 11.91108 11778 ft 311 kts 101°
2026-04-29 17:22 43.17754 11.93996 11375 ft 306 kts 101°
2026-04-29 17:22 43.17388 11.96857 10971 ft 304 kts 100°
2026-04-29 17:23 43.17031 11.99708 10575 ft 304 kts 101°
2026-04-29 17:23 43.16654 12.02550 10177 ft 302 kts 101°
2026-04-29 17:23 43.16278 12.05377 9760 ft 301 kts 101°
2026-04-29 17:23 43.15818 12.08161 9353 ft 299 kts 111°
2026-04-29 17:24 43.14876 12.10663 9034 ft 292 kts 126°
2026-04-29 17:24 43.13569 12.12738 9025 ft 287 kts 140°
2026-04-29 17:24 43.11959 12.14391 9021 ft 291 kts 147°
2026-04-29 17:24 43.10308 12.15996 9022 ft 291 kts 147°
2026-04-29 17:25 43.08665 12.17615 9025 ft 290 kts 146°
2026-04-29 17:25 43.07025 12.19214 9023 ft 289 kts 146°
2026-04-29 17:25 43.05380 12.20804 9023 ft 290 kts 147°
2026-04-29 17:25 43.03735 12.22403 9024 ft 291 kts 147°
2026-04-29 17:26 43.01989 12.23813 8714 ft 294 kts 159°
2026-04-29 17:26 43.00058 12.24706 7985 ft 293 kts 163°
2026-04-29 17:26 42.98134 12.25637 7259 ft 294 kts 161°
2026-04-29 17:26 42.96235 12.26583 6528 ft 281 kts 161°
2026-04-29 17:27 42.94479 12.27517 5829 ft 262 kts 155°
2026-04-29 17:27 42.93044 12.28882 5528 ft 237 kts 141°
2026-04-29 17:27 42.91948 12.30461 5469 ft 228 kts 129°
2026-04-29 17:27 42.90928 12.32169 5257 ft 234 kts 131°
2026-04-29 17:28 42.89909 12.33863 5050 ft 229 kts 127°
2026-04-29 17:28 42.89254 12.35828 4838 ft 228 kts 107°
2026-04-29 17:28 42.89049 12.37963 4623 ft 228 kts 90°
2026-04-29 17:28 42.89319 12.40078 4414 ft 227 kts 73°
2026-04-29 17:29 42.90031 12.41985 4196 ft 227 kts 56°
2026-04-29 17:29 42.91127 12.43524 4028 ft 224 kts 39°
2026-04-29 17:29 42.92317 12.44826 4004 ft 215 kts 39°
2026-04-29 17:29 42.93461 12.46093 3991 ft 209 kts 39°
2026-04-29 17:30 42.94725 12.47064 3780 ft 213 kts 12°
2026-04-29 17:30 42.96207 12.47008 3490 ft 217 kts 351°
2026-04-29 17:30 42.97719 12.47179 3167 ft 221 kts 14°
2026-04-29 17:30 42.99162 12.47739 2853 ft 216 kts 12°
2026-04-29 17:31 43.00609 12.48171 2546 ft 202 kts 10°
2026-04-29 17:31 43.01685 12.48552 2301 ft 169 kts 14°
2026-04-29 17:31 43.02751 12.48948 2041 ft 159 kts 13°
2026-04-29 17:31 43.03799 12.49309 1822 ft 154 kts 11°
2026-04-29 17:32 43.04824 12.49662 1587 ft 150 kts 15°
2026-04-29 17:32 43.05815 12.50019 1375 ft 147 kts 11°
2026-04-29 17:32 43.06794 12.50344 1217 ft 144 kts 12°
2026-04-29 17:32 43.07785 12.50695 965 ft 148 kts 10°
2026-04-29 17:33 43.08758 12.51034 718 ft 135 kts 11°
2026-04-29 17:33 43.09561 12.51304 661 ft 98 kts 11°
2026-04-29 17:33 43.10081 12.51487 664 ft 62 kts 14°
2026-04-29 17:33 43.10355 12.51582 666 ft 33 kts 15°
2026-04-29 17:34 43.10525 12.51645 665 ft 15 kts 26°
2026-04-29 17:34 43.10637 12.51689 663 ft 17 kts 13°
2026-04-29 17:34 43.10724 12.51711 663 ft 9 kts 350°
2026-04-29 17:34 43.10768 12.51634 663 ft 9 kts 289°
2026-04-29 17:35 43.10705 12.51481 664 ft 18 kts 194°
2026-04-29 17:35 43.10577 12.51436 664 ft 19 kts 195°
2026-04-29 17:35 43.10453 12.51392 664 ft 19 kts 193°
2026-04-29 17:36 43.10300 12.51339 664 ft 26 kts 195°
2026-04-29 17:36 43.10151 12.51286 664 ft 17 kts 194°
2026-04-29 17:36 43.10024 12.51242 664 ft 21 kts 195°
2026-04-29 17:36 43.09887 12.51194 663 ft 14 kts 194°
2026-04-29 17:37 43.09783 12.51153 663 ft 17 kts 221°
2026-04-29 17:37 43.09723 12.51013 663 ft 13 kts 244°
2026-04-29 17:37 43.09686 12.50904 663 ft 9 kts 244°
2026-04-29 17:37 43.09664 12.50839 663 ft 9 kts 246°
2026-04-29 17:38 43.09633 12.50742 663 ft 13 kts 246°
2026-04-29 17:38 43.09592 12.50617 663 ft 16 kts 246°
2026-04-29 17:38 43.09552 12.50494 663 ft 8 kts 239°
2026-04-29 17:38 43.09491 12.50472 663 ft 12 kts 165°
2026-04-29 17:39 43.09418 12.50510 663 ft 6 kts 165°
2026-04-29 17:39 43.09403 12.50504 663 ft 1 kts 218°
2026-04-29 17:39 43.09398 12.50488 663 ft 4 kts 262°
2026-04-29 17:39 43.09395 12.50457 663 ft 3 kts 237°
2026-04-29 17:40 43.09381 12.50455 663 ft 1 kts 158°
2026-04-29 17:40 43.09374 12.50459 663 ft 1 kts 158°
2026-04-29 17:40 43.09366 12.50463 663 ft 0 kts 159°